Greenwood, Nova Scotia

11:16 AM ADT on August 16, 2017 (GMT -0300)
Greenwood

Weather History for CYZX - January, 2014

Change the Weather History Date:

Thursday, January 16, 2014

  Actual Average Record
Temperature  
Mean Temperature 36 °F -  
Max Temperature 39 °F 31 °F 50 °F (1997)
Min Temperature 32 °F 13 °F -9 °F (2004)
Degree Days  
Heating Degree Days 30    
Moisture  
Dew Point 36 °F    
Average Humidity 100    
Maximum Humidity 100    
Minimum Humidity 97    
Precipitation  
Precipitation 0.31 in 0.12 in - ()
Sea Level Pressure  
Sea Level Pressure 29.92 in    
Wind  
Wind Speed 3 mph ()    
Max Wind Speed 8 mph    
Max Gust Speed -    
Visibility 4.0 miles    
Events Fog , Rain    
Averages and records for this station are not official NWS values.
T = Trace of Precipitation, MM = Missing Value Source: Averaged Metar Reports

Daily Weather History Graph

Daily Weather History Graph

Search for Another Location

Airport or City:

Trip Planner

Search our weather history database for the weather conditions in past years. The results will help you decide how hot, cold, wet, or windy it might be!

Date:

Astronomy

Jan. 16, 2014 Rise Set
Actual Time 7:53 AM AST 5:05 PM AST
Civil Twilight 7:21 AM AST 5:38 PM AST
Nautical Twilight 6:44 AM AST 6:14 PM AST
Astronomical Twilight 6:09 AM AST 6:49 PM AST
Moon 5:58 PM AST 7:41 AM AST
Length of Visible Light 10h 17m
Length of Day
9h 11m
Full, 100% of the Moon is Illuminated
Jan 16
Full
Jan 24
Last Quarter
Jan 30
New
Feb 6
First Quarter
Feb 14
Full

Hourly Weather History & Observations

Time (AST) Temp. Windchill Dew Point Humidity Pressure Visibility Wind Dir Wind Speed Gust Speed Precip Events Conditions
12:00 AM 35.6 °F 32.8 °F 35.6 °F 100% 29.97 in 4.0 mi East 3.5 mph - N/A   Overcast
1:00 AM 33.8 °F - 33.8 °F 100% 29.97 in 6.0 mi Calm Calm - N/A   Overcast
2:00 AM 35 °F - 35 °F 98% 29.98 in 6 mi North 3.5 mph - -   Mist
2:00 AM 35.6 °F - 35.6 °F 100% 29.97 in 6.0 mi WNW 2.3 mph - N/A   Mostly Cloudy
2:39 AM - - - N/A% - 8.0 mi ESE 2.3 mph - N/A   Overcast
3:00 AM 35.6 °F - 35.6 °F 100% 29.94 in 8.0 mi Calm Calm - N/A   Overcast
4:00 AM 35.6 °F - 35.6 °F 100% 29.93 in 8.0 mi ESE 2.3 mph - N/A   Overcast
5:00 AM 35.6 °F - 35.6 °F 100% 29.93 in 8.0 mi East 2.3 mph - N/A   Overcast
6:00 AM 35.6 °F - 35.6 °F 100% 29.94 in 8.0 mi Calm Calm - N/A   Overcast
6:37 AM - - - N/A% - 5.0 mi Calm Calm - N/A   Overcast
7:00 AM 35.6 °F - 35.6 °F 100% 29.93 in 5.0 mi Calm Calm - N/A   Overcast
7:12 AM - - - N/A% - 4.0 mi ENE 3.5 mph - N/A   Overcast
7:24 AM - - - N/A% - 1.0 mi ESE 3.5 mph - N/A   Overcast
7:42 AM - - - N/A% - 0.8 mi ENE 3.5 mph - N/A   Overcast
8:00 AM 36 °F - 35 °F 97% 29.94 in 1 mi ENE 2.3 mph - -   Mist
8:00 AM 35.6 °F 32.8 °F 35.6 °F 100% 29.94 in 0.8 mi ENE 3.5 mph - N/A   Overcast
8:06 AM - - - N/A% - 0.5 mi ENE 4.6 mph - N/A Fog Fog
8:31 AM - - - N/A% - 0.5 mi ENE 4.6 mph - N/A Fog Fog
8:37 AM - - - N/A% - 0.5 mi Calm Calm - N/A Fog , Rain Light Rain
9:00 AM 35.6 °F - 35.6 °F 100% 29.97 in 0.6 mi South 2.3 mph - N/A Rain Light Rain
9:20 AM - - - N/A% - 0.4 mi NNE 2.3 mph - N/A Fog , Rain Light Rain
9:37 AM - - - N/A% - 0.8 mi East 3.5 mph - N/A Rain Light Rain
10:00 AM 35.6 °F 29.9 °F 35.6 °F 100% 29.94 in 0.8 mi ENE 6.9 mph - N/A Rain Light Rain
10:49 AM - - - N/A% - 1.5 mi ENE 6.9 mph - N/A Rain Light Rain
11:00 AM 37.4 °F 33.8 °F 37.4 °F 100% 29.96 in 2.5 mi ENE 4.6 mph - N/A Rain Light Rain
12:00 PM 37.4 °F 32.8 °F 37.4 °F 100% 29.86 in 2.5 mi East 5.8 mph - N/A Rain Light Rain
1:00 PM 37.4 °F 32.1 °F 37.4 °F 100% 29.86 in 2.5 mi ENE 6.9 mph - N/A Rain Light Rain
1:27 PM - - - N/A% - 2.5 mi ENE 5.8 mph - N/A Rain Light Rain
2:00 PM 38 °F - 38 °F 100% 29.88 in 2 mi ENE 6.9 mph - - Rain Light Rain
2:00 PM 37.4 °F 31.4 °F 37.4 °F 100% 29.88 in 2.5 mi ENE 8.1 mph - N/A Rain Light Rain
2:13 PM - - - N/A% - 4.0 mi NNE 6.9 mph - N/A Rain Light Rain
3:00 PM 37.4 °F 34.9 °F 37.4 °F 100% 29.89 in 4.0 mi NE 3.5 mph - N/A Rain Light Rain
4:00 PM 39.2 °F 35.0 °F 39.2 °F 100% 29.89 in 4.0 mi East 5.8 mph - N/A Rain Light Rain
5:00 PM 37.4 °F 33.8 °F 37.4 °F 100% 29.86 in 4.0 mi ENE 4.6 mph - N/A Rain Light Rain
5:18 PM - - - N/A% - 4.0 mi North 3.5 mph - N/A   Overcast
5:39 PM - - - N/A% - 3.0 mi North 3.5 mph - N/A   Overcast
6:00 PM 37.4 °F 33.8 °F 37.4 °F 100% 29.85 in 4.0 mi NNE 4.6 mph - N/A   Overcast
6:20 PM - - - N/A% - 6.0 mi NNW 2.3 mph - N/A Rain Light Rain
7:00 PM 37.4 °F 34.9 °F 37.4 °F 100% 29.87 in 6.0 mi NNW 3.5 mph - N/A Rain Light Rain
7:16 PM - - - N/A% - 6.0 mi NNW 3.5 mph - N/A Rain Light Rain
8:00 PM 37 °F - 37 °F 100% 29.91 in 6 mi NW 4.6 mph - - Rain Light Rain
8:00 PM 37.4 °F 33.8 °F 37.4 °F 100% 29.91 in 6.0 mi NW 4.6 mph - N/A Rain Light Rain
8:28 PM - - - N/A% - 5.0 mi Calm Calm - N/A Rain Light Rain
9:00 PM 37.4 °F 34.9 °F 37.4 °F 100% 29.90 in 6.0 mi SE 3.5 mph - N/A Rain Light Rain
9:30 PM - - - N/A% - 6.0 mi ESE 4.6 mph - N/A Rain Light Rain
10:00 PM 35.6 °F - 35.6 °F 100% 29.89 in 6.0 mi North 2.3 mph - N/A Rain Light Rain
10:35 PM - - - N/A% - 6.0 mi NW 3.5 mph - N/A Rain Light Rain
11:00 PM 35.6 °F 32.8 °F 35.6 °F 100% 29.89 in 6.0 mi NNW 3.5 mph - N/A Rain Light Rain